Home > Weather > Meilen > Past weeks

Flag for Switzerland Past Weather in Meilen, Zurich, Switzerland — Yesterday and Last 2 Weeks

Now
61 °F

Cool.


Feels Like: 61 °F
Forecast: 55 / 78 °F
Wind: 2 mph from South

Location: Zuerich-Fluntern

Current Time: Jun 28, 2016 at 10:02:39 AM

Latest Report: Jun 28, 2016 at 9:00 AM


Visibility: N/A

Pressure: 30.12 "Hg

Humidity: 72%

Dew Point: 52 °F

Location of MeilenLocation

Past Weather in Meilen — Graph

°F

Meilen Temperature Yesterday

Maximum temperature yesterday: 72 °F (at 5:00 PM)
Minimum temperature yesterday: 57 °F (at 7:00 AM)
Average temperature yesterday: 63 °F

High & Low Weather Summary for the Past Weeks

 TemperatureHumidityPressure
High90 °F (Jun 23, 6:00 PM)97% (Jun 17, 12:00 AM)30.28 "Hg (Jun 17, 12:00 AM)
Low48 °F (Jun 17, 6:00 AM)38% (Jun 24, 3:00 PM)29.59 "Hg (Jun 16, 5:00 AM)
Average62 °F80%29.99 "Hg
* Reported Jun 13 8:00 AM — Jun 28 8:00 AM, Meilen, Weather by CustomWeather, © 2016

Note: Actual official high and low records may vary slightly from our data, if they occured in-between our weather recording intervals... More about our weather records

Advertising

Meilen Weather History for the Previous 24 Hours

Scroll right to see more
 ConditionsComfort  
Time TempWeatherWind HumidityBarometerVisibility
8:00 AM
Tue, Jun 28
59 °FPassing clouds.1 mph76%30.14 "HgN/A
7:00 AM58 °FCool.No wind82%30.14 "HgN/A
6:00 AM57 °FCool.2 mph80%30.14 "HgN/A
5:00 AM58 °FCool.2 mph76%30.14 "HgN/A
4:00 AM58 °FCool.3 mph78%30.14 "HgN/A
3:00 AM59 °FCool.1 mph75%30.16 "HgN/A
2:00 AM59 °FCool.1 mph75%30.16 "HgN/A
1:00 AM60 °FCool.1 mph70%30.16 "HgN/A
12:00 AM61 °FCool.3 mph67%30.16 "HgN/A
11:00 PM
Mon, Jun 27
60 °FCool.2 mph70%30.16 "HgN/A
10:00 PM62 °FCool.2 mph66%30.16 "HgN/A
9:00 PM65 °FMild.1 mph55%30.13 "HgN/A
8:00 PM69 °FPassing clouds.5 mph43%30.10 "HgN/A
7:00 PM70 °FMild.6 mph43%30.10 "HgN/A
6:00 PM68 °FMild.3 mph46%30.11 "HgN/A
5:00 PM72 °FMild.6 mph39%30.10 "HgN/A
4:00 PM69 °FMild.3 mph41%30.12 "HgN/A
3:00 PM69 °FMild.3 mph46%30.13 "HgN/A
2:00 PM69 °FPartly sunny.6 mph41%30.13 "HgN/A
1:00 PM67 °FMild.6 mph43%30.15 "HgN/A
12:00 PM64 °FMild.6 mph55%30.17 "HgN/A
11:00 AM64 °FMild.3 mph54%30.18 "HgN/A
10:00 AM60 °FRefreshingly cool.3 mph59%30.19 "HgN/A
Weather by CustomWeather, © 2016

See weather overviewHow to use our weather pages